• en Belgique
  • Liste des pays
  • À 7 jours
  • Température de l'eau
  • Carte satellitaire
  • Carte météo
  • Widgets météo
  • user-avatar
    Se connecter

    Météo par heure à Polyana

    Ce jour, 27 Mai, Dimanche

    Heure Température Précipitation Vent Pression Humidité
    00:00 +13°C° 0 mm 2 m/s 757 mmHg 75%
    01:00 +12°C° 0 mm 2 m/s 757 mmHg 76%
    02:00 +12°C° 0 mm 2 m/s 757 mmHg 77%
    03:00 +12°C° 0 mm 3 m/s 756 mmHg 76%
    04:00 +13°C° 0 mm 3 m/s 756 mmHg 75%
    05:00 +13°C° 0 mm 3 m/s 756 mmHg 75%
    06:00 +15°C° 0 mm 4 m/s 756 mmHg 70%
    07:00 +18°C° 0 mm 4 m/s 755 mmHg 65%
    08:00 +20°C° 0 mm 4 m/s 755 mmHg 60%
    09:00 +21°C° 0 mm 4 m/s 755 mmHg 56%
    10:00 +23°C° 0 mm 5 m/s 754 mmHg 52%
    11:00 +25°C° 0 mm 5 m/s 754 mmHg 48%
    12:00 +25°C° 0 mm 5 m/s 754 mmHg 48%
    13:00 +25°C° 0 mm 4 m/s 753 mmHg 48%
    14:00 +25°C° 0 mm 4 m/s 753 mmHg 47%
    15:00 +23°C° 0,1 mm 4 m/s 753 mmHg 47%
    16:00 +23°C° 0,1 mm 4 m/s 753 mmHg 47%
    17:00 +22°C° 0,1 mm 4 m/s 753 mmHg 47%
    18:00 +20°C° 0 mm 4 m/s 753 mmHg 49%
    19:00 +17°C° 0 mm 3 m/s 754 mmHg 51%
    20:00 +14°C° 0 mm 3 m/s 755 mmHg 53%
    21:00 +13°C° 0 mm 3 m/s 755 mmHg 52%
    22:00 +12°C° 0 mm 2 m/s 756 mmHg 51%
    23:00 +10°C° 0 mm 2 m/s 757 mmHg 50%

    Demain, 28 Mai, Lundi

    Heure Température Précipitation Vent Pression Humidité
    00:00 +9°C° 0 mm 2 m/s 757 mmHg 51%
    01:00 +8°C° 0 mm 2 m/s 758 mmHg 52%
    02:00 +7°C° 0 mm 2 m/s 759 mmHg 53%
    03:00 +7°C° 0 mm 2 m/s 759 mmHg 54%
    04:00 +8°C° 0 mm 2 m/s 760 mmHg 54%
    05:00 +8°C° 0 mm 2 m/s 760 mmHg 55%
    06:00 +10°C° 0 mm 2 m/s 760 mmHg 48%
    07:00 +13°C° 0 mm 2 m/s 760 mmHg 42%
    08:00 +14°C° 0 mm 2 m/s 761 mmHg 35%
    09:00 +16°C° 0 mm 2 m/s 761 mmHg 33%
    10:00 +17°C° 0 mm 2 m/s 761 mmHg 31%
    11:00 +18°C° 0 mm 2 m/s 761 mmHg 28%
    12:00 +19°C° 0 mm 2 m/s 760 mmHg 28%
    13:00 +19°C° 0 mm 2 m/s 760 mmHg 28%
    14:00 +20°C° 0 mm 2 m/s 760 mmHg 28%
    15:00 +20°C° 0 mm 2 m/s 760 mmHg 30%
    16:00 +21°C° 0 mm 1 m/s 759 mmHg 32%
    17:00 +21°C° 0 mm 1 m/s 759 mmHg 34%
    18:00 +18°C° 0 mm 1 m/s 759 mmHg 41%
    19:00 +15°C° 0 mm 1 m/s 759 mmHg 48%
    20:00 +12°C° 0 mm 0 m/s 759 mmHg 55%
    21:00 +12°C° 0 mm 1 m/s 759 mmHg 56%
    22:00 +12°C° 0 mm 1 m/s 759 mmHg 57%
    23:00 +11°C° 0 mm 1 m/s 759 mmHg 58%

    Après-demain, 29 Mai, Mardi

    Heure Température Précipitation Vent Pression Humidité
    00:00 +10°C° 0 mm 1 m/s 759 mmHg 59%
    01:00 +10°C° 0 mm 1 m/s 759 mmHg 61%
    02:00 +9°C° 0 mm 2 m/s 759 mmHg 62%
    03:00 +9°C° 0 mm 2 m/s 759 mmHg 62%
    04:00 +10°C° 0 mm 2 m/s 759 mmHg 62%
    05:00 +10°C° 0 mm 2 m/s 759 mmHg 62%
    06:00 +14°C° 0 mm 2 m/s 758 mmHg 56%
    07:00 +16°C° 0 mm 2 m/s 758 mmHg 50%
    08:00 +18°C° 0 mm 3 m/s 758 mmHg 44%
    09:00 +20°C° 0 mm 3 m/s 757 mmHg 40%
    10:00 +21°C° 0 mm 3 m/s 756 mmHg 37%
    11:00 +22°C° 0 mm 3 m/s 756 mmHg 33%
    12:00 +24°C° 0 mm 3 m/s 755 mmHg 33%
    13:00 +25°C° 0 mm 4 m/s 754 mmHg 33%
    14:00 +25°C° 0 mm 4 m/s 754 mmHg 32%
    15:00 +25°C° 0 mm 4 m/s 753 mmHg 36%
    16:00 +25°C° 0 mm 4 m/s 752 mmHg 39%
    17:00 +24°C° 0 mm 3 m/s 752 mmHg 43%
    18:00 +21°C° 0 mm 3 m/s 751 mmHg 53%
    19:00 +20°C° 0 mm 2 m/s 751 mmHg 63%
    20:00 +18°C° 0 mm 2 m/s 750 mmHg 72%
    21:00 +17°C° 0 mm 2 m/s 750 mmHg 75%
    22:00 +16°C° 0 mm 2 m/s 749 mmHg 78%
    23:00 +14°C° 0 mm 3 m/s 749 mmHg 81%

    30 Mai, Mercredi

    Heure Température Précipitation Vent Pression Humidité
    00:00 +14°C° 0 mm 3 m/s 749 mmHg 80%
    01:00 +14°C° 0 mm 3 m/s 748 mmHg 78%
    02:00 +14°C° 0 mm 3 m/s 748 mmHg 77%
    03:00 +14°C° 0 mm 3 m/s 747 mmHg 76%
    04:00 +15°C° 0 mm 4 m/s 747 mmHg 75%
    05:00 +17°C° 0 mm 4 m/s 746 mmHg 74%
    06:00 +17°C° 0 mm 5 m/s 746 mmHg 68%
    07:00 +20°C° 0 mm 6 m/s 745 mmHg 61%
    08:00 +22°C° 0 mm 6 m/s 744 mmHg 55%
    09:00 +22°C° 0 mm 7 m/s 744 mmHg 52%
    10:00 +23°C° 0 mm 7 m/s 744 mmHg 49%
    11:00 +24°C° 0 mm 7 m/s 743 mmHg 47%
    12:00 +23°C° 0,1 mm 7 m/s 743 mmHg 45%
    13:00 +23°C° 0,1 mm 7 m/s 744 mmHg 43%
    14:00 +22°C° 0,1 mm 6 m/s 744 mmHg 42%
    15:00 +21°C° 0 mm 6 m/s 744 mmHg 40%
    16:00 +21°C° 0 mm 5 m/s 744 mmHg 39%
    17:00 +20°C° 0 mm 5 m/s 744 mmHg 37%
    18:00 +18°C° 0 mm 4 m/s 744 mmHg 43%
    19:00 +16°C° 0 mm 3 m/s 744 mmHg 49%
    20:00 +13°C° 0 mm 3 m/s 744 mmHg 55%
    21:00 +12°C° 0 mm 3 m/s 745 mmHg 58%
    22:00 +12°C° 0 mm 2 m/s 745 mmHg 62%
    23:00 +10°C° 0 mm 2 m/s 745 mmHg 66%

    31 Mai, Jeudi

    Heure Température Précipitation Vent Pression Humidité
    00:00 +9°C° 0 mm 2 m/s 746 mmHg 69%
    01:00 +8°C° 0 mm 2 m/s 746 mmHg 72%
    02:00 +8°C° 0 mm 3 m/s 746 mmHg 76%
    03:00 +8°C° 0 mm 3 m/s 747 mmHg 71%
    04:00 +7°C° 0 mm 3 m/s 747 mmHg 67%
    05:00 +7°C° 0 mm 3 m/s 748 mmHg 62%
    06:00 +7°C° 0 mm 4 m/s 748 mmHg 55%
    07:00 +8°C° 0 mm 4 m/s 748 mmHg 48%
    08:00 +10°C° 0 mm 4 m/s 749 mmHg 41%
    09:00 +11°C° 0 mm 4 m/s 749 mmHg 36%
    10:00 +12°C° 0 mm 4 m/s 749 mmHg 31%
    11:00 +13°C° 0 mm 4 m/s 749 mmHg 26%
    12:00 +13°C° 0 mm 4 m/s 749 mmHg 26%
    13:00 +14°C° 0 mm 4 m/s 749 mmHg 25%
    14:00 +14°C° 0 mm 4 m/s 749 mmHg 25%
    15:00 +14°C° 0 mm 4 m/s 749 mmHg 27%
    16:00 +13°C° 0 mm 4 m/s 749 mmHg 29%
    17:00 +13°C° 0 mm 4 m/s 749 mmHg 31%
    18:00 +11°C° 0 mm 3 m/s 750 mmHg 38%
    19:00 +10°C° 0 mm 3 m/s 750 mmHg 45%
    20:00 +8°C° 0 mm 3 m/s 750 mmHg 52%
    21:00 +7°C° 0 mm 3 m/s 751 mmHg 55%
    22:00 +5°C° 0 mm 3 m/s 751 mmHg 57%
    23:00 +4°C° 0 mm 3 m/s 752 mmHg 60%

    1 Juin, Vendredi

    Heure Température Précipitation Vent Pression Humidité
    00:00 +3°C° 0 mm 3 m/s 752 mmHg 63%
    01:00 +3°C° 0 mm 2 m/s 752 mmHg 66%
    02:00 +2°C° 0 mm 2 m/s 752 mmHg 69%
    03:00 +3°C° 0 mm 2 m/s 753 mmHg 66%
    04:00 +2°C° 0 mm 3 m/s 753 mmHg 64%
    05:00 +3°C° 0 mm 3 m/s 753 mmHg 61%
    06:00 +4°C° 0 mm 3 m/s 753 mmHg 55%
    07:00 +7°C° 0 mm 3 m/s 753 mmHg 49%
    08:00 +8°C° 0 mm 3 m/s 754 mmHg 43%
    09:00 +9°C° 0 mm 3 m/s 753 mmHg 41%
    10:00 +10°C° 0 mm 4 m/s 753 mmHg 39%
    11:00 +11°C° 0 mm 4 m/s 753 mmHg 37%
    12:00 +12°C° 0 mm 4 m/s 753 mmHg 35%
    13:00 +12°C° 0 mm 4 m/s 753 mmHg 33%
    14:00 +13°C° 0 mm 4 m/s 753 mmHg 32%
    15:00 +13°C° 0 mm 4 m/s 752 mmHg 33%
    16:00 +13°C° 0 mm 3 m/s 752 mmHg 33%
    17:00 +13°C° 0 mm 3 m/s 752 mmHg 34%
    18:00 +11°C° 0 mm 3 m/s 752 mmHg 41%
    19:00 +10°C° 0 mm 2 m/s 752 mmHg 47%
    20:00 +10°C° 0 mm 1 m/s 752 mmHg 53%
    21:00 +8°C° 0 mm 1 m/s 753 mmHg 57%
    22:00 +7°C° 0 mm 1 m/s 753 mmHg 60%
    23:00 +5°C° 0 mm 1 m/s 753 mmHg 64%
    Voir plus